◎C/2005 Y2の軌道と予報位置です    [From YC 2500]



マックノート新彗星  C/2005 Y2 (McNaught)

  サイディング・スプリングのマックノート(R. H. McNaught, Siding Spring)

は,2005年12月30日に50-cmウプサラ・シュミットでみずがめ座を撮影した捜索フ

レーム上に17等級の新彗星を発見した.翌31日に撮影されたCCDフレーム上では,

彗星には約10"のコマが見られた(IAUC 8652).



   2005 UT             α     (2000)     δ             Mag.

   Dec. 30.45574   23h 07m 04s.58   -24゚ 09' 24".7      17.8



  OAA計算課では,2005年12月30日から2006年1月7日までに行なわれた42個の観

測から次の軌道を決定した.彗星は,ここしばらく観測できないだろう.



                                       。

   T = 2005 July 30.545 TT    ω = 239.417

                               Ω =  87.238    (2000.0)

   q =   4.25549 AU           i =  18.705



2006/        α  (2000) δ      △      r    Daily Motion  Elong. Phase    m1 

  0h TT     h  m       。  ,        AU      AU     ,     。      。      。      等

Jan.  5   23 12.16  -23 25.1    4.914   4.454   15.5/ 59     56.9   10.7   18.1

     15   23 21.74  -22 04.2    5.050   4.479   16.2/ 60     49.8    9.7   18.2

     25   23 31.73  -20 42.7    5.176   4.506   16.7/ 61     43.0    8.6   18.3

Feb.  4   23 42.04  -19 21.3    5.290   4.533   17.0/ 62     36.3    7.4   18.4

                    m1 =  9.5 + 5 log △ +  8.0 log r





    C/2005 Y2 (McNaught)

T 2005 July 30.54542 TT                                 Nakano

q   4.2554923            (2000.0)            P               Q

                   Peri.  239.41702     +0.78995472     +0.52283947

                   Node    87.23777     -0.39249083     +0.83253338

e   1.0            Incl.   18.70534     -0.47108650     +0.18310393

From 42 observations 2005 Dec. 30-2006 Jan. 7.

Residuals in seconds of arc 

2005/                     051231 E12  0.0   0.7-    060101 J76  0.4-  1.3+  

051230 E12  0.5+  0.9-    051231 E12  0.3+  0.8+    060102 415  0.5-  1.3+  

051230 E12  0.4+  1.6-    051231 E12  0.8-  0.3+    060102 415  0.2-  1.6+  

051230 E12  1.4+  1.1-    051231 E12  0.0   0.2-    060102 E12  1.6-  0.3+  

051230 E12  0.9+  0.7-    051231 E12  1.0-  1.1+    060102 E12  1.0-  1.8+  

051230 E12  0.9+  0.2-    051231 E12  0.2+  1.1-    060102 E12  0.2+  0.1-  

051230 E12  0.2+  0.4-    051231 E12  0.3+  0.3-    060102 E12  1.3-  0.5+  

051230 E12  0.5+  0.1-    2006/                     060102 J76  0.1-  1.1+  

051231 711  0.1+  0.0     060101 711 (2.2-  0.3-)   060102 J76  0.6-  0.9+  

051231 734  0.3+  1.2-    060101 711 (2.4-  2.1-)   060102 J76  0.4-  1.2+  

051231 734  0.3+  0.4-    060101 E12  1.0+  0.5+    060107 673  1.3+  1.1-  

051231 734  0.5-  0.7-    060101 E12  0.1-  0.8+    060107 673  1.0+  1.2-  

051231 711  0.0   0.2-    060101 E12  1.3-  0.0     060107 673  0.6+  1.4-  

051231 734  0.8+  1.5-    060101 E12  1.0-  0.8+    060107 673  0.1+  1.1-  

051231 711  0.1-  0.4-    060101 J76  0.4-  0.6+                            

051231 E12  0.5+  0.4+    060101 J76  0.5-  1.3+                            



NAKANO

         **** Don't distribute anyone except personal use only ****

                (C) Copyright 2006 OAA/ComputingSection

write mail from CFAD0::NAKANO on 2006-01-18 23:43:25(JST).

 



戻ります。